Wind_Speed
20 20 21 21 21 21 21 21 21 21 22 22 22 22 21 20 19 20 20 21 22 22 22 23 22 22 22 21 21 22 21 20 20 20 19 19 19 20
22 22 22 22 23 23 23 24 24 24 24 24 24 24 24 23 23 22 22 22 22 23 23 23 23 23 24 24 24 24 24 24 23 23 21 21 21 21
24 24 25 25 25 25 25 25 25 26 26 26 25 25 25 25 25 26 26 26 24 24 24 24 24 25 25 25 26 26 26 25 25 24 23 23 23 23
26 26 26 26 26 26 26 26 27 27 27 27 27 28 27 27 27 28 28 27 26 25 25 25 26 26 28 28 28 27 27 27 27 26 26 26 25 24
27 27 27 27 28 28 28 28 29 29 29 29 29 29 28 28 28 29 29 28 28 27 27 27 27 27 28 29 29 29 29 29 29 28 28 27 27 26
28 28 28 28 29 29 30 30 30 30 31 30 30 30 30 30 30 29 29 30 29 29 28 28 28 28 28 29 30 30 30 30 30 30 30 29 28 28
29 29 29 30 30 30 30 30 31 31 31 31 31 31 31 31 31 31 31 30 30 30 30 30 30 30 29 30 30 30 31 30 31 31 30 30 29 29
29 30 30 30 30 31 31 31 31 31 32 32 32 32 32 32 32 32 32 32 31 30 31 30 30 30 29 30 31 31 31 30 31 31 31 31 30 30
30 30 30 30 31 31 32 32 32 32 33 33 33 33 32 33 33 33 33 33 32 31 31 30 30 30 30 30 30 31 31 32 32 32 32 31 31 31
30 30 31 31 31 31 32 32 33 33 34 35 34 34 34 34 34 34 33 33 32 31 31 31 31 31 30 30 30 31 32 31 31 32 31 31 31 31
31 31 31 32 32 32 33 33 34 34 34 35 35 35 35 34 34 34 34 33 32 32 32 31 31 31 31 31 31 33 34 33 32 32 32 32 32 33
32 33 33 33 33 33 34 34 34 34 33 33 33 33 34 33 33 33 33 32 32 31 31 31 30 31 31 30 31 32 33 33 34 33 33 32 32 32
32 33 34 34 35 34 34 34 33 32 32 32 32 32 32 32 32 33 32 32 32 31 31 31 29 28 28 29 29 30 31 31 31 32 32 32 32 31
33 34 35 35 35 34 34 33 32 32 31 30 30 31 31 31 32 32 32 32 31 31 31 31 29 27 27 27 27 27 27 28 29 29 30 31 31 31
35 35 36 35 35 34 34 33 32 32 31 30 30 30 30 30 30 31 31 31 30 29 29 29 28 28 27 27 26 26 26 27 28 29 29 30 29 29
35 35 35 34 34 33 32 31 31 31 30 30 29 28 28 28 29 29 28 28 28 28 29 28 28 28 27 27 26 26 26 26 27 26 26 26 27 27
35 34 34 33 32 31 30 30 29 29 29 28 27 26 27 27 27 27 27 27 27 28 28 28 28 28 27 26 25 25 24 24 25 26 26 26 26 26
35 34 33 31 30 30 29 28 28 28 27 26 27 27 26 26 26 27 27 27 27 27 27 27 28 27 27 26 24 24 24 24 25 26 25 25 25 25
33 32 31 29 28 27 27 27 27 26 26 26 26 26 25 25 25 25 26 26 26 26 26 26 26 26 26 25 24 25 24 24 24 25 25 24 24 24
30 30 29 28 27 26 26 25 25 25 25 24 24 24 25 24 24 24 24 24 24 24 24 23 24 25 25 25 24 24 24 24 24 25 25 24 24 23
28 28 27 27 26 25 24 24 24 24 24 24 23 23 24 23 23 23 23 23 23 22 22 23 23 24 25 25 23 22 22 23 24 24 24 24 24 24
27 26 26 25 25 24 24 23 24 24 24 24 24 23 23 22 21 22 22 22 22 22 22 22 23 24 24 24 23 22 22 22 23 23 24 25 25 24
26 25 25 25 25 24 24 24 24 23 23 23 23 22 22 22 21 21 21 21 20 20 21 22 22 23 23 23 23 23 23 23 23 23 24 24 25 25
Wind_Direction
301 301 300 298 296 293 291 291 290 288 287 286 285 285 287 287 285 280 277 273 270 269 266 265 264 263 263 262 263 262 261 262 261 261 262 263 263 265
299 299 298 297 296 294 290 289 288 287 286 285 284 283 284 284 283 280 277 276 273 270 268 267 264 263 262 261 261 263 261 263 264 263 263 264 267 268
298 297 295 295 294 293 292 290 287 286 285 284 284 282 282 281 279 279 278 276 273 271 270 269 266 262 261 261 262 262 260 261 263 263 263 264 268 268
298 297 295 294 292 291 290 290 288 286 284 282 282 281 280 279 278 278 278 277 274 272 272 272 269 265 263 261 260 260 260 261 261 261 263 264 267 267
297 296 295 293 291 290 290 289 287 285 283 282 280 280 279 279 279 278 279 278 275 273 272 271 269 265 264 262 259 259 260 261 261 261 262 263 264 264
297 296 295 293 292 291 289 288 287 285 283 282 279 278 277 277 278 278 278 277 277 275 273 270 269 267 264 262 259 259 260 261 261 261 261 262 262 263
297 296 295 294 293 291 290 289 287 286 284 282 280 278 276 276 276 276 277 277 276 275 273 270 268 267 265 264 261 260 259 260 259 259 260 260 260 261
298 296 296 294 293 292 290 289 287 286 284 282 280 279 277 276 275 275 275 275 274 273 273 270 268 265 264 264 262 260 258 257 257 258 258 259 259 260
299 297 296 295 294 294 292 290 288 286 285 283 282 281 279 276 275 274 274 275 275 274 273 272 269 266 264 261 259 257 255 253 255 256 257 257 258 258
300 299 298 296 294 293 291 290 289 287 285 282 280 279 278 276 276 274 274 274 273 273 273 272 269 265 264 262 261 259 258 256 256 256 256 256 256 257
301 300 299 297 296 294 292 290 289 287 285 283 281 279 277 276 275 274 273 273 272 272 272 271 269 265 264 262 261 261 260 259 258 258 257 257 257 258
301 300 300 299 298 297 294 292 290 288 286 284 282 279 277 275 273 273 272 272 271 271 271 270 270 266 263 262 261 259 258 258 259 259 259 259 258 258
302 301 301 300 299 298 296 294 292 290 287 284 283 281 278 276 274 273 272 271 271 271 270 270 269 267 265 261 260 259 258 257 257 256 256 257 256 258
303 302 301 300 300 298 297 295 292 290 288 286 284 282 279 276 275 273 272 272 272 270 270 269 268 266 266 265 262 258 256 255 254 254 255 256 255 257
304 304 302 301 300 299 299 297 295 292 290 288 287 285 281 278 276 274 273 272 271 271 270 268 267 267 267 266 263 257 254 253 253 254 255 256 256 257
305 304 303 301 301 300 299 297 296 295 291 289 288 286 284 280 276 274 273 271 269 268 270 270 268 267 266 265 262 259 256 253 250 252 253 253 253 256
306 305 304 302 302 302 300 299 297 295 293 290 288 287 285 281 277 273 271 269 269 268 267 267 266 265 265 263 261 259 256 253 251 251 252 254 255 254
305 304 305 303 302 302 300 299 298 298 296 292 291 291 288 283 279 275 271 270 269 268 267 266 265 264 263 261 260 257 255 254 253 253 253 254 253 254
307 307 307 305 304 302 301 300 299 297 297 295 293 293 290 285 280 275 273 271 269 268 267 266 265 263 262 260 259 257 256 254 254 254 254 254 254 253
308 309 309 307 305 303 302 301 300 297 297 295 293 293 291 286 280 278 275 272 270 268 267 265 264 263 261 258 256 254 254 254 253 253 253 253 254 253
310 311 311 310 308 306 304 302 300 298 297 294 294 293 291 286 282 279 277 274 269 268 266 264 264 264 262 259 255 253 253 253 253 254 253 254 255 254
313 313 313 312 310 308 306 305 304 301 298 294 293 293 291 287 283 280 277 274 271 269 267 266 265 263 260 258 255 252 252 252 253 254 254 256 256 255
314 312 311 310 309 309 307 305 304 302 300 297 295 293 291 288 285 282 278 276 274 272 271 269 266 261 258 257 256 254 253 253 253 252 254 256 256 255
Height
5843 5841 5840 5838 5837 5836 5835 5834 5833 5832 5831 5831 5830 5829 5829 5827 5828 5827 5827 5827 5827 5828 5828 5829 5829 5830 5830 5831 5832 5833 5834 5835 5836 5836 5836 5837 5838 5838
5837 5836 5834 5832 5831 5829 5829 5828 5827 5826 5825 5824 5824 5823 5822 5822 5822 5821 5821 5820 5820 5821 5822 5822 5823 5823 5824 5824 5826 5828 5829 5829 5830 5830 5831 5831 5832 5832
5831 5830 5828 5826 5825 5823 5822 5821 5820 5819 5818 5818 5817 5816 5816 5815 5815 5814 5814 5813 5814 5814 5814 5815 5816 5816 5817 5818 5819 5820 5821 5822 5823 5824 5824 5825 5825 5826
5825 5823 5821 5819 5818 5816 5815 5814 5812 5811 5811 5811 5810 5809 5809 5808 5807 5806 5806 5806 5806 5806 5807 5807 5808 5808 5809 5810 5811 5812 5813 5814 5816 5817 5817 5818 5818 5819
5818 5816 5814 5812 5810 5809 5807 5806 5805 5803 5802 5802 5802 5801 5801 5800 5799 5799 5798 5798 5798 5798 5798 5799 5799 5800 5801 5802 5803 5804 5805 5806 5807 5808 5809 5810 5811 5811
5810 5808 5806 5804 5803 5801 5799 5797 5796 5795 5794 5793 5793 5792 5792 5792 5791 5790 5790 5789 5789 5790 5790 5790 5790 5791 5792 5793 5794 5795 5796 5797 5798 5799 5801 5802 5803 5803
5803 5801 5798 5796 5794 5792 5791 5789 5787 5786 5784 5783 5783 5783 5783 5782 5782 5781 5780 5780 5780 5780 5780 5781 5781 5782 5782 5783 5784 5785 5786 5787 5789 5790 5791 5792 5794 5795
5795 5792 5790 5788 5786 5784 5782 5780 5778 5777 5775 5774 5773 5773 5773 5772 5771 5771 5770 5770 5770 5770 5770 5771 5771 5772 5773 5773 5774 5775 5776 5778 5779 5780 5781 5783 5784 5785
5787 5784 5781 5779 5777 5775 5772 5771 5769 5767 5765 5764 5763 5762 5762 5761 5761 5761 5760 5760 5760 5760 5759 5760 5761 5761 5762 5763 5764 5765 5766 5768 5769 5770 5771 5773 5774 5775
5779 5776 5773 5771 5768 5766 5763 5761 5759 5756 5754 5753 5753 5752 5751 5750 5750 5749 5749 5750 5750 5749 5749 5750 5750 5750 5752 5753 5754 5755 5756 5758 5759 5760 5762 5763 5764 5766
5770 5767 5764 5761 5759 5756 5754 5751 5748 5746 5744 5742 5741 5741 5740 5739 5739 5739 5739 5739 5739 5740 5739 5739 5739 5740 5741 5743 5744 5745 5746 5747 5748 5750 5751 5753 5754 5755
5762 5758 5755 5752 5749 5745 5743 5740 5738 5735 5733 5731 5730 5730 5729 5728 5728 5728 5728 5728 5728 5729 5729 5729 5729 5729 5731 5732 5733 5734 5735 5737 5738 5739 5741 5743 5744 5745
5753 5749 5745 5742 5738 5735 5733 5730 5727 5725 5722 5721 5720 5719 5718 5718 5717 5717 5717 5717 5718 5719 5719 5719 5719 5719 5720 5722 5723 5724 5724 5726 5728 5729 5731 5732 5734 5736
5743 5740 5736 5732 5728 5725 5723 5720 5717 5715 5713 5711 5709 5708 5708 5707 5707 5707 5707 5707 5707 5708 5709 5709 5709 5710 5710 5711 5712 5714 5715 5716 5718 5720 5721 5722 5724 5726
5734 5730 5726 5723 5719 5716 5713 5710 5707 5705 5703 5701 5700 5699 5698 5697 5697 5697 5697 5697 5698 5698 5698 5699 5699 5700 5701 5702 5703 5704 5706 5707 5708 5710 5712 5713 5715 5717
5725 5721 5717 5713 5709 5706 5703 5701 5698 5695 5693 5691 5690 5689 5688 5687 5687 5687 5688 5688 5688 5688 5689 5689 5690 5691 5692 5692 5693 5695 5696 5698 5699 5701 5703 5705 5706 5708
5716 5711 5707 5704 5700 5697 5695 5692 5689 5687 5684 5683 5681 5680 5679 5678 5678 5678 5678 5679 5679 5679 5680 5680 5681 5682 5683 5683 5685 5686 5687 5689 5690 5692 5694 5696 5698 5699
5707 5703 5699 5695 5692 5689 5686 5683 5681 5678 5676 5674 5673 5672 5670 5670 5669 5669 5669 5670 5670 5670 5671 5671 5672 5673 5674 5675 5677 5678 5679 5680 5682 5684 5686 5687 5689 5691
5698 5694 5691 5687 5684 5681 5678 5675 5673 5671 5668 5667 5665 5664 5662 5661 5661 5660 5660 5661 5661 5661 5662 5662 5663 5664 5665 5667 5668 5669 5671 5672 5674 5676 5678 5679 5681 5683
5690 5686 5683 5679 5676 5673 5670 5668 5665 5663 5661 5659 5658 5656 5655 5654 5653 5652 5652 5652 5652 5653 5654 5654 5655 5656 5657 5659 5660 5661 5663 5664 5666 5668 5670 5671 5673 5675
5682 5679 5675 5672 5669 5666 5663 5661 5658 5656 5654 5652 5650 5649 5647 5646 5645 5644 5644 5644 5644 5644 5645 5646 5646 5647 5648 5650 5652 5653 5655 5656 5658 5660 5662 5664 5665 5667
5675 5672 5669 5666 5662 5659 5657 5654 5652 5649 5647 5645 5643 5641 5640 5638 5637 5637 5636 5636 5636 5636 5637 5638 5638 5639 5640 5642 5643 5645 5647 5648 5650 5652 5654 5656 5657 5659
5669 5666 5662 5659 5656 5653 5650 5648 5645 5642 5640 5638 5636 5634 5633 5631 5630 5629 5629 5629 5629 5629 5629 5629 5629 5630 5631 5633 5635 5637 5639 5641 5642 5644 5646 5647 5649 5651